Kagoshima Airport
RJFK : now visible

Airfield :











YOU CAN JOIN US ON...

 
LOGIN :

Register | Disclaimer

   EN    FR    IT 

 









Legend :    VFR   Marginal VFR   IFR   Intensive IFR   Very Intensive IFR
Visi :
Ceiling :
>= 8 km
>= 3000ft
5 to 8 km
1000 to 3000 ft
1500m to 5 km
500 to 1000 ft
800 to 1500m
200 to 500 ft
< 800m
< 200 ft
Symbols :   Thunderstorms  Fog  Heavy snow  Heavy precipitations  Wind > 20 kt







- Airport Elevation : 906 ft
- IATA code : KOJ


RJFK - Kagoshima

CURRENT METAR :
  • 181200Z 02003KT 9999 -RA FEW003 SCT080 OVC150 17/17 Q1011 RMK 1ST003 3AC080 8AS150 A2988

EXPIRED METARs :
  • 181100Z 01003KT 9999 -RA FEW003 SCT080 OVC100 17/17 Q1011 RMK 1ST003 3AC080 8AS100 A2988
  • 181000Z 36001KT 9999 FEW003 SCT070 BKN100 18/17 Q1011

TAF TAF RJFK
Valid from the 18 at 12:00 until the 19 at 18:00 UTC


181105Z 1812/1918 09003KT 9999 -RA FEW015 SCT045
BECMG 1909/1912 32005KT
RJJJ FIR / Asia



MET'MAP, your aeronautical weather chart ! - Copyright ORBIFLY December 2007 - Disclaimer

ORBIFLY MET'MAP TEAM :

Programming & Development : Alexandra Zaïnal
Concept & Development : Baudouin d'Aumeries
Co-Development & Prog : Marc-Olivier Méhu
Technical & hardware support : Manuel Goepfert

Contact : metmap@orbifly.com




SOURCES & CREDITS :

   NOAA       Earth
Advisory